EN

Hourly Weather Luhans'ke

Today, 25 November, Wednesday

Time Temperature Precipitation Wind Pressure Humidity
00:00 +5°C° 0 mm 4 mps 767 mmHg 64%
01:00 +4°C° 0 mm 4 mps 767 mmHg 66%
02:00 +3°C° 0 mm 3 mps 767 mmHg 69%
03:00 +3°C° 0 mm 3 mps 767 mmHg 70%
04:00 +3°C° 0 mm 3 mps 767 mmHg 71%
05:00 +2°C° 0 mm 3 mps 767 mmHg 73%
06:00 +4°C° 0 mm 2 mps 767 mmHg 73%
07:00 +4°C° 0 mm 2 mps 767 mmHg 73%
08:00 +4°C° 0 mm 2 mps 767 mmHg 74%
09:00 +4°C° 0 mm 3 mps 767 mmHg 68%
10:00 +5°C° 0 mm 4 mps 767 mmHg 63%
11:00 +7°C° 0 mm 4 mps 766 mmHg 58%
12:00 +7°C° 0 mm 5 mps 766 mmHg 58%
13:00 +8°C° 0 mm 5 mps 766 mmHg 58%
14:00 +8°C° 0 mm 5 mps 766 mmHg 59%
15:00 +7°C° 0 mm 5 mps 766 mmHg 64%
16:00 +6°C° 0 mm 4 mps 765 mmHg 68%
17:00 +5°C° 0 mm 4 mps 765 mmHg 73%
18:00 +5°C° 0 mm 4 mps 765 mmHg 75%
19:00 +5°C° 0 mm 4 mps 766 mmHg 77%
20:00 +4°C° 0 mm 3 mps 766 mmHg 79%
21:00 +4°C° 0 mm 3 mps 766 mmHg 77%
22:00 +4°C° 0 mm 3 mps 766 mmHg 75%
23:00 +3°C° 0 mm 3 mps 766 mmHg 74%

Tomorrow, 26 November, Thursday

Time Temperature Precipitation Wind Pressure Humidity
00:00 +5°C° 0 mm 2 mps 766 mmHg 72%
01:00 +5°C° 0 mm 2 mps 766 mmHg 71%
02:00 +5°C° 0 mm 2 mps 766 mmHg 70%
03:00 +5°C° 0 mm 2 mps 766 mmHg 70%
04:00 +6°C° 0 mm 1 mps 766 mmHg 70%
05:00 +6°C° 0 mm 1 mps 766 mmHg 71%
06:00 +6°C° 0 mm 1 mps 766 mmHg 70%
07:00 +7°C° 0 mm 1 mps 767 mmHg 70%
08:00 +6°C° 0 mm 0 mps 767 mmHg 70%
09:00 +7°C° 0 mm 0 mps 767 mmHg 67%
10:00 +7°C° 0 mm 0 mps 767 mmHg 63%
11:00 +8°C° 0 mm 0 mps 767 mmHg 60%
12:00 +9°C° 0 mm 0 mps 767 mmHg 59%
13:00 +9°C° 0 mm 0 mps 767 mmHg 58%
14:00 +10°C° 0 mm 0 mps 767 mmHg 56%
15:00 +9°C° 0 mm 0 mps 767 mmHg 61%
16:00 +9°C° 0 mm 1 mps 767 mmHg 65%
17:00 +8°C° 0 mm 1 mps 767 mmHg 69%
18:00 +8°C° 0 mm 1 mps 767 mmHg 70%
19:00 +6°C° 0 mm 2 mps 767 mmHg 72%
20:00 +6°C° 0 mm 2 mps 767 mmHg 74%
21:00 +6°C° 0 mm 2 mps 767 mmHg 75%
22:00 +5°C° 0 mm 2 mps 767 mmHg 76%
23:00 +4°C° 0 mm 3 mps 767 mmHg 78%

Day after tomorrow, 27 November, Friday

Time Temperature Precipitation Wind Pressure Humidity
00:00 +5°C° 0 mm 2 mps 767 mmHg 79%
01:00 +5°C° 0 mm 2 mps 767 mmHg 80%
02:00 +5°C° 0 mm 2 mps 767 mmHg 81%
03:00 +5°C° 0 mm 2 mps 767 mmHg 82%
04:00 +4°C° 0 mm 3 mps 767 mmHg 84%
05:00 +4°C° 0 mm 3 mps 767 mmHg 86%
06:00 +4°C° 0 mm 3 mps 767 mmHg 86%
07:00 +4°C° 0 mm 3 mps 767 mmHg 86%
08:00 +4°C° 0 mm 3 mps 767 mmHg 86%
09:00 +6°C° 0 mm 4 mps 767 mmHg 78%
10:00 +8°C° 0 mm 4 mps 767 mmHg 70%
11:00 +11°C° 0 mm 4 mps 766 mmHg 63%
12:00 +12°C° 0 mm 4 mps 766 mmHg 61%
13:00 +12°C° 0 mm 3 mps 766 mmHg 60%
14:00 +12°C° 0 mm 3 mps 766 mmHg 59%
15:00 +11°C° 0 mm 3 mps 766 mmHg 65%
16:00 +10°C° 0 mm 3 mps 766 mmHg 72%
17:00 +8°C° 0 mm 3 mps 765 mmHg 79%
18:00 +8°C° 0 mm 2 mps 765 mmHg 81%
19:00 +7°C° 0 mm 2 mps 765 mmHg 84%
20:00 +7°C° 0 mm 2 mps 765 mmHg 86%
21:00 +7°C° 0 mm 2 mps 765 mmHg 87%
22:00 +6°C° 0 mm 2 mps 765 mmHg 87%
23:00 +7°C° 0 mm 1 mps 765 mmHg 88%

28 November, Saturday

Time Temperature Precipitation Wind Pressure Humidity
00:00 +7°C° 0 mm 1 mps 765 mmHg 88%
01:00 +7°C° 0 mm 1 mps 765 mmHg 88%
02:00 +6°C° 0 mm 1 mps 765 mmHg 88%
03:00 +6°C° 0 mm 1 mps 765 mmHg 87%
04:00 +6°C° 0 mm 1 mps 765 mmHg 87%
05:00 +6°C° 0 mm 1 mps 764 mmHg 86%
06:00 +6°C° 0 mm 1 mps 765 mmHg 85%
07:00 +6°C° 0 mm 1 mps 765 mmHg 84%
08:00 +6°C° 0 mm 1 mps 765 mmHg 82%
09:00 +8°C° 0 mm 1 mps 765 mmHg 75%
10:00 +9°C° 0 mm 1 mps 764 mmHg 68%
11:00 +11°C° 0 mm 1 mps 764 mmHg 61%
12:00 +10°C° 0 mm 2 mps 764 mmHg 60%
13:00 +12°C° 0 mm 2 mps 764 mmHg 58%
14:00 +12°C° 0 mm 2 mps 763 mmHg 57%
15:00 +10°C° 0 mm 2 mps 763 mmHg 63%
16:00 +9°C° 0 mm 2 mps 763 mmHg 69%
17:00 +8°C° 0 mm 2 mps 763 mmHg 75%
18:00 +7°C° 0 mm 2 mps 763 mmHg 78%
19:00 +7°C° 0 mm 2 mps 763 mmHg 81%
20:00 +7°C° 0 mm 2 mps 763 mmHg 84%
21:00 +6°C° 0 mm 2 mps 763 mmHg 85%
22:00 +7°C° 0 mm 1 mps 763 mmHg 86%
23:00 +7°C° 0 mm 1 mps 762 mmHg 87%

29 November, Sunday

Time Temperature Precipitation Wind Pressure Humidity
00:00 +7°C° 0 mm 1 mps 762 mmHg 87%
01:00 +7°C° 0 mm 1 mps 762 mmHg 86%
02:00 +6°C° 0 mm 2 mps 762 mmHg 85%
03:00 +7°C° 0 mm 2 mps 761 mmHg 84%
04:00 +7°C° 0 mm 3 mps 761 mmHg 83%
05:00 +7°C° 0 mm 4 mps 761 mmHg 81%
06:00 +7°C° 0 mm 4 mps 761 mmHg 82%
07:00 +7°C° 0 mm 4 mps 761 mmHg 82%
08:00 +8°C° 0 mm 4 mps 761 mmHg 83%
09:00 +10°C° 0 mm 4 mps 761 mmHg 78%
10:00 +10°C° 0 mm 5 mps 761 mmHg 74%
11:00 +12°C° 0 mm 5 mps 761 mmHg 69%
12:00 +12°C° 0 mm 5 mps 761 mmHg 68%
13:00 +12°C° 0 mm 4 mps 761 mmHg 67%
14:00 +12°C° 0 mm 4 mps 760 mmHg 66%
15:00 +11°C° 0 mm 3 mps 761 mmHg 69%
16:00 +9°C° 0 mm 3 mps 761 mmHg 73%
17:00 +8°C° 0 mm 3 mps 761 mmHg 76%
18:00 +8°C° 0 mm 2 mps 761 mmHg 75%
19:00 +8°C° 0 mm 2 mps 761 mmHg 73%
20:00 +9°C° 0 mm 1 mps 761 mmHg 72%
21:00 +8°C° 0 mm 2 mps 762 mmHg 72%
22:00 +8°C° 0 mm 2 mps 762 mmHg 73%
23:00 +7°C° 0 mm 2 mps 762 mmHg 73%

30 November, Monday

Time Temperature Precipitation Wind Pressure Humidity
00:00 +7°C° 0 mm 3 mps 762 mmHg 75%
01:00 +7°C° 0 mm 3 mps 762 mmHg 77%
02:00 +7°C° 0 mm 3 mps 762 mmHg 78%
03:00 +5°C° 0 mm 3 mps 762 mmHg 79%
04:00 +5°C° 0 mm 3 mps 762 mmHg 80%
05:00 +5°C° 0 mm 3 mps 762 mmHg 80%
06:00 +5°C° 0 mm 3 mps 762 mmHg 81%
07:00 +5°C° 0 mm 3 mps 763 mmHg 81%
08:00 +5°C° 0 mm 3 mps 763 mmHg 81%
09:00 +7°C° 0 mm 3 mps 763 mmHg 79%
10:00 +8°C° 0 mm 3 mps 763 mmHg 76%
11:00 +9°C° 0 mm 3 mps 763 mmHg 74%
12:00 +9°C° 0 mm 3 mps 763 mmHg 75%
13:00 +8°C° 0 mm 4 mps 763 mmHg 75%
14:00 +8°C° 0 mm 4 mps 762 mmHg 76%
15:00 +8°C° 0 mm 4 mps 762 mmHg 81%
16:00 +8°C° 0 mm 4 mps 762 mmHg 86%
17:00 +7°C° 0 mm 4 mps 763 mmHg 90%
18:00 +7°C° 0 mm 5 mps 763 mmHg 84%
19:00 +7°C° 0 mm 5 mps 763 mmHg 77%
20:00 +7°C° 0 mm 6 mps 763 mmHg 71%
21:00 +7°C° 0 mm 6 mps 763 mmHg 73%
22:00 +7°C° 0 mm 6 mps 763 mmHg 76%
23:00 +5°C° 0 mm 6 mps 763 mmHg 78%
Show more